Regional Weather Roundup
Issued by NWS

Home | Current Version | Previous Version | Text Only | Print | Product List | Glossary On
Versions: 1 2 3 4 5 6 7 8 9 10 11 12 13 14 15 16 17 18 19 20 21 22 23 24 25 26 27 28 29 30 31 32 33 34 35 36 37 38 39 40 41 42 43 44 45 46 47 48 49 50
968
ASUS44 KLIX 310411
RWRLA
LOUISIANA WEATHER ROUNDUP
NATIONAL WEATHER SERVICE NEW ORLEANS LA
1100 PM CDT MON MAR 30 2015

NOTE: "FAIR" INDICATES FEW OR NO CLOUDS BELOW 12,000 FEET WITH NO
      SIGNIFICANT WEATHER AND/OR OBSTRUCTIONS TO VISIBILITY.
      SKY/WX - SKY CONDITION AND SIGNIFICANT WEATHER.
      TMP - AIR TEMPERATURE.    DP   - DEWPOINT TEMPERATURE.
      RH  - RELATIVE HUMIDITY.  PRES - PRESSURE.
      HX  - HEAT INDEX.         WCI  - WIND CHILL INDEX.

*  THESE STATIONS ARE NOT NWS OR FAA STATIONS AND ARE NOT UNDER
   NWS QUALITY CONTROL.

LAZ040-048-061>063-065-066-069-310500-
SOUTHEAST LOUISIANA

CITY           SKY/WX    TMP DP  RH WIND       PRES   REMARKS
N.O. AUDUBON     N/A     67  67 100 MISG        N/A
N.O. INTL ARPT CLEAR     68  61  78 SW7       30.17S
N.O. LAKEFRONT CLEAR     73  63  70 SW10      30.17S
SLIDELL        CLEAR     71  63  75 SW6       30.15S
BATON ROUGE    CLEAR     68  61  78 SW9       30.16R
BOOTHVILLE     CLEAR     71  67  87 SW7       30.18S
BELLE CHASSE   PTCLDY    65  62  90 SW3       30.17S
BOGALUSA*        N/A     69  60  74 W5        30.16S
GALLIANO*      CLEAR     69  66  90 CALM      30.18S
NEW ROADS*     FAIR      66  59  77 S7        30.15S
GONZALES*      FAIR      65  64  96 CALM      30.16S
HAMMOND*       CLEAR     70  59  68 SW3       30.17S
HOUMA*         CLEAR     62  61  97 CALM      30.17S
PORT FOURCHON* CLEAR     72  66  83 SW5       30.21S

$$

LAZ041-044-053-054-310500-
SOUTHWEST LOUISIANA

CITY           SKY/WX    TMP DP  RH WIND       PRES   REMARKS
LAKE CHARLES   CLEAR     65  63  93 CALM      30.15S
LAFAYETTE      CLEAR     65  61  87 SW5       30.16S
PATTERSON      CLEAR     64  61  88 CALM      30.18S
SALT POINT       N/A     66  63  90 CALM      30.16S
NEW IBERIA     CLEAR     63  60  90 SW5       30.17S
CHENAULT AIRPK CLEAR     62  61  97 S5        30.16S

$$

LAZ027-028-310500-
CENTRAL LOUISIANA

CITY           SKY/WX    TMP DP  RH WIND       PRES   REMARKS
FORT POLK      CLEAR     67  62  85 S8        30.12S
ALEXANDRIA INT CLEAR     69  61  75 S9        30.11S
ALEXANDRIA     CLEAR     67  60  78 SW6       30.13S

$$

LAZ001-002-310500-
NORTHWEST LOUISIANA

CITY           SKY/WX    TMP DP  RH WIND       PRES   REMARKS
SHREVEPORT     MOCLDY    63  60  90 CALM      30.08F
BARKSDALE AFB  PTCLDY    63  63  99 CALM      30.08F
DTN SHREVEPORT PTCLDY    62  59  90 CALM      30.08F

$$

LAZ014-016-310500-
NORTHEAST LOUISIANA

CITY           SKY/WX    TMP DP  RH WIND       PRES   REMARKS
MONROE         CLEAR     62  60  93 CALM      30.10F
TALLULAH       CLEAR     60  58  92 CALM      30.11F

$$




USA.gov is the U.S. government's official web portal to all federal, state and local government web resources and services.